CW4845 Weather Reports


time (UTC)temp
C
wind
direction
speed
KPH
gust
KPH
rain 1hr
cm
rain 24hr
cm
rain mn
cm
humidity
%
barometer
mb
20260506213733 18 206 20.9 33.8 0.00 0.00 0.00 83 1006.5
20260506213233 18 180 19.3 33.8 0.00 0.00 0.00 83 1006.5
20260506212715 18 169 19.3 33.8 0.00 0.00 0.00 83 1006.5
20260506212216 18 197 17.7 30.6 0.00 0.00 0.00 83 1006.5
20260506211701 17 173 16.1 30.6 0.00 0.00 0.00 84 1006.5
20260506211158 17 165 14.5 29.0 0.00 0.00 0.00 83 1006.5
20260506210658 16 176 16.1 25.7 0.00 0.00 0.00 83 1006.2
20260506210146 16 145 14.5 29.0 0.00 0.00 0.00 82 1006.2
20260506205912 17 165 19.3 33.8 0.00 0.00 0.00 80 1006.2
20260506205143 18 131 20.9 33.8 0.00 0.00 0.00 83 1006.2
20260506204645 18 184 19.3 32.2 0.00 0.00 0.00 83 1006.2
20260506204134 18 192 20.9 32.2 0.00 0.00 0.00 83 1006.2
20260506203637 18 195 22.5 41.8 0.00 0.00 0.00 83 1006.3
20260506203131 18 153 24.1 41.8 0.00 0.00 0.00 83 1006.3
20260506202632 18 173 24.1 40.2 0.00 0.00 0.00 83 1006.3
20260506202352 18 191 24.1 40.2 0.00 0.00 0.00 83 1006.4
20260506201832 17 197 24.1 35.4 0.00 0.00 0.00 84 1006.4
20260506201114 17 174 25.7 40.2 0.00 0.00 0.00 84 1006.4
20260506200616 17 192 25.7 40.2 0.00 0.00 0.00 84 1006.6
20260506200046 17 223 25.7 40.2 0.00 0.00 0.00 84 1006.6
20260506195546 17 191 25.7 43.5 0.00 0.00 0.00 84 1006.6
20260506195044 17 191 25.7 43.5 0.00 0.00 0.00 84 1006.8
20260506194544 17 176 22.5 40.2 0.00 0.00 0.00 84 1006.8
20260506194302 17 129 22.5 35.4 0.00 0.00 0.00 84 1006.8
20260506193801 17 182 22.5 35.4 0.00 0.00 0.00 84 1007.0
20260506193044 17 191 24.1 38.6 0.00 0.00 0.00 84 1007.0
20260506192540 17 190 25.7 38.6 0.00 0.00 0.00 84 1007.0
20260506192040 17 180 24.1 38.6 0.00 0.00 0.00 84 1007.0
20260506191532 17 174 24.1 32.2 0.00 0.00 0.00 85 1007.0
20260506191034 17 198 25.7 41.8 0.00 0.00 0.00 85 1007.0
20260506190516 17 190 25.7 43.5 0.00 0.00 0.00 86 1007.3
20260506190019 17 189 27.4 43.5 0.00 0.00 0.00 86 1007.3
20260506185517 16 196 27.4 49.9 0.00 0.00 0.00 86 1007.3
20260506185018 16 166 25.7 49.9 0.00 0.00 0.00 85 1007.3
20260506184719 16 170 25.7 43.5 0.00 0.00 0.00 85 1007.3
20260506184211 16 213 25.7 43.5 0.00 0.00 0.00 85 1007.5
20260506183426 17 191 25.7 43.5 0.00 0.00 0.00 85 1007.5
20260506182901 16 195 27.4 45.1 0.00 0.00 0.00 84 1007.5
20260506182348 16 182 27.4 45.1 0.00 0.00 0.00 84 1007.5
20260506181850 16 194 27.4 45.1 0.00 0.00 0.00 84 1007.5
20260506181347 16 183 27.4 43.5 0.00 0.00 0.00 84 1007.5
20260506180845 16 211 29.0 40.2 0.00 0.00 0.00 84 1007.6
20260506180317 17 143 27.4 41.8 0.00 0.00 0.00 84 1007.6
20260506175813 17 189 29.0 49.9 0.00 0.00 0.00 83 1007.6
20260506175309 17 188 30.6 49.9 0.00 0.00 0.00 83 1008.0
20260506174806 17 180 30.6 53.1 0.00 0.00 0.00 83 1008.0
20260506174236 17 178 30.6 53.1 0.00 0.00 0.00 82 1008.0
20260506173712 17 174 30.6 51.5 0.00 0.00 0.00 82 1007.9
20260506173149 17 198 27.4 49.9 0.00 0.00 0.00 82 1007.9
20260506172634 17 185 25.7 48.3 0.00 0.00 0.00 82 1007.9
20260506172134 17 175 25.7 43.5 0.00 0.00 0.00 83 1008.1
20260506171612 17 194 27.4 43.5 0.00 0.00 0.00 84 1008.1
20260506171107 17 197 25.7 43.5 0.00 0.00 0.00 84 1008.1
20260506170557 17 180 24.1 41.8 0.00 0.00 0.00 83 1008.5
20260506170028 17 176 27.4 45.1 0.00 0.00 0.00 83 1008.5
20260506165522 17 188 29.0 45.1 0.00 0.00 0.00 84 1008.5
20260506165020 17 197 27.4 43.5 0.00 0.00 0.00 84 1009.1
20260506164520 17 141 27.4 43.5 0.00 0.00 0.00 84 1009.1
20260506164225 16 195 27.4 43.5 0.00 0.00 0.00 84 1009.1
20260506163507 16 195 25.7 43.5 0.00 0.00 0.00 84 1009.2
20260506163003 16 140 27.4 38.6 0.00 0.00 0.00 84 1009.2
20260506162505 16 182 29.0 51.5 0.00 0.00 0.00 84 1009.2
20260506161951 16 161 30.6 51.5 0.00 0.00 0.00 84 1009.2
20260506161452 16 193 32.2 49.9 0.00 0.00 0.00 84 1009.2
20260506160935 16 173 30.6 51.5 0.00 0.00 0.00 84 1009.3
20260506160430 16 189 27.4 51.5 0.00 0.00 0.00 84 1009.3
20260506155929 16 192 25.7 43.5 0.00 0.00 0.00 83 1009.3
20260506155430 16 176 25.7 45.1 0.00 0.00 0.00 83 1009.4
20260506154930 16 192 27.4 45.1 0.00 0.00 0.00 83 1009.4
20260506154653 16 196 27.4 43.5 0.00 0.00 0.00 83 1009.4
20260506153930 16 191 27.4 41.8 0.00 0.00 0.00 83 1009.6
20260506153403 16 182 27.4 41.8 0.00 0.00 0.00 83 1009.6
20260506152904 16 182 25.7 40.2 0.00 0.00 0.00 83 1009.6
20260506152405 16 187 25.7 48.3 0.00 0.00 0.00 83 1009.6
20260506151847 16 195 27.4 49.9 0.00 0.00 0.00 83 1009.6
20260506151346 17 189 29.0 49.9 0.00 0.00 0.00 83 1009.6
20260506150847 16 182 29.0 48.3 0.00 0.00 0.00 83 1009.6
20260506150548 17 172 29.0 48.3 0.00 0.00 0.00 83 1009.6
20260506145825 17 196 30.6 46.7 0.00 0.00 0.00 83 1009.6
20260506145327 17 174 27.4 46.7 0.00 0.00 0.00 82 1009.6
20260506144812 17 198 30.6 49.9 0.00 0.00 0.00 82 1009.6
20260506144459 17 188 32.2 49.9 0.00 0.00 0.00 82 1009.6
20260506144006 17 179 30.6 53.1 0.00 0.00 0.00 82 1009.7
20260506143244 17 186 29.0 53.1 0.00 0.00 0.00 82 1009.7
20260506142931 17 187 30.6 48.3 0.00 0.00 0.00 83 1009.6
20260506142817 17 161 30.6 46.7 0.00 0.00 0.00 83 1009.7
20260506141656 17 198 29.0 45.1 0.00 0.00 0.00 83 1009.6
20260506141130 17 192 29.0 56.3 0.00 0.00 0.00 82 1009.6
20260506141040 17 200 29.0 56.3 0.00 0.00 0.00 82 1009.6
20260506140321 17 153 27.4 45.1 0.00 0.00 0.00 82 1009.6
20260506135557 17 176 27.4 45.1 0.00 0.00 0.00 82 1009.6
20260506135043 17 189 27.4 43.5 0.00 0.00 0.00 82 1009.8
20260506134544 17 211 25.7 40.2 0.00 0.00 0.00 82 1009.8
20260506134017 17 176 25.7 40.2 0.00 0.00 0.00 82 1010.1
20260506133507 17 164 27.4 45.1 0.00 0.00 0.00 82 1010.1
20260506133007 17 161 25.7 45.1 0.00 0.00 0.00 82 1010.1
20260506132440 17 170 24.1 37.0 0.00 0.00 0.00 82 1010.1
20260506132149 17 182 25.7 41.8 0.00 0.00 0.00 83 1010.1
20260506131424 17 187 25.7 41.8 0.00 0.00 0.00 83 1010.1
20260506130916 17 182 29.0 45.1 0.00 0.00 0.00 83 1010.1
20260506130414 17 190 29.0 45.1 0.00 0.00 0.00 84 1010.1
20260506125855 17 188 27.4 46.7 0.00 0.00 0.00 84 1010.1
20260506125619 16 186 27.4 46.7 0.00 0.00 0.00 85 1009.8
20260506124846 16 204 27.4 43.5 0.00 0.00 0.00 85 1009.8
20260506124346 16 209 27.4 41.8 0.00 0.00 0.00 85 1009.8
20260506123838 16 159 25.7 40.2 0.00 0.00 0.00 85 1010.0
20260506123317 16 193 27.4 46.7 0.00 0.00 0.00 85 1010.0
20260506122816 16 197 27.4 46.7 0.00 0.00 0.00 85 1010.0
20260506122518 16 215 24.1 40.2 0.00 0.00 0.00 85 1010.0
20260506121741 16 195 24.1 40.2 0.00 0.00 0.00 86 1010.0
20260506121202 16 201 24.1 38.6 0.00 0.00 0.00 86 1010.0
20260506120633 16 194 24.1 40.2 0.00 0.00 0.00 86 1010.0
20260506120112 16 202 24.1 38.6 0.00 0.00 0.00 85 1010.0
20260506115818 16 163 25.7 38.6 0.00 0.00 0.00 86 1010.0
20260506115100 16 192 27.4 41.8 0.00 0.00 0.00 86 1010.1
20260506114824 16 204 25.7 41.8 0.00 0.00 0.00 86 1010.1
20260506114101 16 181 24.1 38.6 0.00 0.00 0.00 86 1010.1
20260506113534 16 228 24.1 43.5 0.00 0.00 0.00 87 1010.2
20260506113032 16 203 24.1 43.5 0.00 0.00 0.00 87 1010.2
20260506112531 16 197 22.5 40.2 0.00 0.00 0.00 87 1010.2
20260506112004 16 173 24.1 48.3 0.00 0.00 0.00 87 1010.1
20260506111434 16 169 25.7 48.3 0.00 0.00 0.00 87 1010.1
20260506110932 15 174 25.7 37.0 0.00 0.00 0.00 87 1010.0
20260506110434 15 143 24.1 41.8 0.00 0.00 0.00 87 1010.0
20260506105903 15 155 25.7 41.8 0.00 0.00 0.00 88 1010.0
20260506105351 15 178 24.1 41.8 0.00 0.00 0.00 88 1010.1
20260506104851 15 186 24.1 41.8 0.00 0.00 0.00 88 1010.1
20260506104352 15 172 24.1 40.2 0.00 0.00 0.00 88 1010.1
20260506103846 15 190 25.7 43.5 0.00 0.00 0.00 88 1010.1
20260506103349 15 177 27.4 43.5 0.00 0.00 0.00 88 1010.1
20260506102838 15 187 29.0 48.3 0.00 0.00 0.00 88 1010.1
20260506102337 15 195 29.0 48.3 0.00 0.00 0.00 88 1010.0
20260506101816 15 184 29.0 45.1 0.00 0.00 0.00 88 1010.0
20260506101251 15 206 30.6 45.1 0.00 0.00 0.00 88 1010.0
20260506100724 15 203 30.6 46.7 0.00 0.00 0.00 88 1009.7
20260506100202 15 188 30.6 51.5 0.00 0.00 0.00 88 1009.7
20260506095702 15 197 30.6 45.1 0.00 0.00 0.00 88 1009.7
20260506095420 15 195 29.0 45.1 0.00 0.00 0.00 89 1009.8
20260506094635 15 216 29.0 46.7 0.00 0.00 0.00 88 1009.8
20260506094133 15 194 27.4 46.7 0.00 0.00 0.00 89 1009.8
20260506093605 15 207 27.4 45.1 0.00 0.00 0.00 88 1009.9
20260506093319 15 187 25.7 40.2 0.00 0.00 0.00 89 1009.9
20260506092544 15 182 27.4 40.2 0.00 0.00 0.00 88 1009.9
20260506092214 15 190 29.0 43.5 0.00 0.00 0.00 89 1010.1
20260506092103 15 152 25.7 43.5 0.00 0.00 0.00 88 1010.1
20260506090945 15 195 29.0 45.1 0.00 0.00 0.00 89 1010.1
20260506090442 15 203 27.4 45.1 0.00 0.00 0.00 88 1010.1
20260506085919 15 195 29.0 41.8 0.00 0.00 0.00 88 1010.1
20260506085418 15 178 29.0 43.5 0.00 0.00 0.00 88 1010.1
20260506084908 15 204 29.0 45.1 0.00 0.00 0.00 88 1010.1
20260506084410 15 182 30.6 46.7 0.00 0.00 0.00 88 1010.1
20260506083849 15 172 32.2 46.7 0.00 0.00 0.00 88 1010.2
20260506083346 15 206 32.2 45.1 0.00 0.00 0.00 88 1010.2
20260506082830 15 211 29.0 43.5 0.00 0.00 0.00 88 1010.2
20260506082332 15 193 27.4 38.6 0.00 0.00 0.00 88 1010.2
20260506081817 15 201 27.4 43.5 0.00 0.00 0.00 88 1010.2
20260506081319 15 209 27.4 45.1 0.00 0.00 0.00 88 1010.2
20260506080815 15 235 25.7 45.1 0.00 0.00 0.00 87 1010.1
20260506080315 15 181 24.1 33.8 0.00 0.00 0.00 87 1010.1
20260506073205 15 180 24.1 38.6 0.00 0.00 0.00 87 1010.5
20260506072705 15 198 22.5 38.6 0.00 0.00 0.00 87 1010.5
20260506072206 15 194 24.1 38.6 0.00 0.00 0.00 87 1010.5
20260506071705 15 184 25.7 37.0 0.00 0.00 0.00 87 1010.5
20260506071155 15 206 25.7 37.0 0.00 0.00 0.00 86 1010.5
20260506070904 15 207 24.1 37.0 0.00 0.00 0.00 86 1010.5
20260506070147 15 180 22.5 37.0 0.00 0.00 0.00 86 1010.5
20260506062015 15 174 22.5 35.4 0.00 0.00 0.00 85 1010.4
20260506061505 15 203 22.5 37.0 0.00 0.00 0.00 85 1010.4
20260506061008 16 176 24.1 41.8 0.00 0.00 0.00 85 1010.4
20260506060506 16 173 27.4 43.5 0.00 0.00 0.00 85 1010.6
20260506060219 16 197 25.7 43.5 0.00 0.00 0.00 85 1010.6
20260506051325 16 182 27.4 41.8 0.00 0.00 0.00 85 1010.9
20260506050756 16 181 27.4 41.8 0.00 0.00 0.00 85 1011.0
20260506050254 16 204 30.6 45.1 0.00 0.00 0.00 85 1011.0
20260506044721 16 216 30.6 48.3 0.00 0.00 0.00 84 1011.0
20260506044416 16 188 30.6 48.3 0.00 0.00 0.00 84 1011.0
20260506043652 16 191 32.2 48.3 0.00 0.00 0.00 84 1011.0
20260506043352 16 188 32.2 48.3 0.00 0.00 0.00 84 1011.0
20260506042605 16 201 29.0 46.7 0.00 0.00 0.00 84 1011.0
20260506042103 16 178 29.0 48.3 0.00 0.00 0.00 84 1010.9
20260506041601 16 207 30.6 53.1 0.00 0.00 0.00 84 1010.9
20260506041323 16 192 32.2 53.1 0.00 0.00 0.00 84 1010.9
20260506040536 16 200 30.6 51.5 0.00 0.00 0.00 84 1011.0
20260506040031 16 192 30.6 51.5 0.00 0.00 0.00 84 1011.0
20260506035749 16 193 30.6 46.7 0.00 0.00 0.00 83 1011.0
20260506035007 16 188 30.6 49.9 0.00 0.00 0.00 83 1011.1
20260506034431 16 190 32.2 49.9 0.00 0.00 0.00 83 1011.1
20260506034131 16 159 30.6 49.9 0.00 0.00 0.00 83 1011.0
20260506033343 16 174 29.0 48.3 0.00 0.00 0.00 83 1011.0
20260506032817 16 202 27.4 45.1 0.00 0.00 0.00 83 1011.0
20260506032315 16 202 27.4 43.5 0.00 0.00 0.00 83 1011.1
20260506031811 16 211 27.4 45.1 0.00 0.00 0.00 83 1011.1
20260506031312 16 138 29.0 45.1 0.00 0.00 0.00 83 1011.1
20260506030754 16 207 30.6 45.1 0.00 0.00 0.00 83 1011.1
20260506030450 16 199 29.0 45.1 0.00 0.00 0.00 83 1011.1
20260506025707 16 205 29.0 45.1 0.00 0.00 0.00 82 1011.1
20260506025415 16 182 30.6 49.9 0.00 0.00 0.00 82 1011.2
20260506024634 16 182 30.6 49.9 0.00 0.00 0.00 81 1011.2
20260506024111 16 157 32.2 51.5 0.00 0.00 0.00 81 1011.2
20260506023610 16 197 32.2 51.5 0.00 0.00 0.00 81 1011.2
20260506023041 17 170 30.6 49.9 0.00 0.00 0.00 81 1011.2
20260506022511 17 205 27.4 43.5 0.00 0.00 0.00 81 1011.2
20260506021959 17 197 29.0 48.3 0.00 0.00 0.00 81 1011.2
20260506021502 17 219 32.2 53.1 0.00 0.00 0.00 81 1011.2
20260506020953 17 188 32.2 54.7 0.00 0.00 0.00 81 1011.2
20260506020454 17 192 30.6 54.7 0.00 0.00 0.00 81 1011.2
20260506015941 17 162 29.0 48.3 0.00 0.00 0.00 82 1011.2
20260506015443 17 163 29.0 41.8 0.00 0.00 0.00 82 1011.2
20260506014922 17 171 30.6 43.5 0.00 0.00 0.00 82 1011.2
20260506014417 17 197 29.0 43.5 0.00 0.00 0.00 81 1011.2
20260506013920 17 163 29.0 45.1 0.00 0.00 0.00 81 1011.1
20260506013349 17 186 30.6 53.1 0.00 0.00 0.00 81 1011.1
20260506013102 17 204 30.6 53.1 0.00 0.00 0.00 81 1011.1
20260506012343 17 188 29.0 48.3 0.00 0.00 0.00 81 1011.1
20260506011813 17 188 27.4 46.7 0.00 0.00 0.00 81 1011.1
20260506011312 17 169 27.4 46.7 0.00 0.00 0.00 80 1011.1
20260506010813 17 213 29.0 43.5 0.00 0.00 0.00 80 1010.8
20260506010309 17 186 29.0 45.1 0.00 0.00 0.00 81 1010.8
20260506005808 17 164 29.0 45.1 0.00 0.00 0.00 80 1010.8
20260506005256 17 190 30.6 53.1 0.00 0.00 0.00 80 1010.6
20260506004747 17 184 33.8 53.1 0.00 0.00 0.00 80 1010.6
20260506004247 17 200 32.2 51.5 0.00 0.00 0.00 79 1010.6
20260506003728 17 208 30.6 48.3 0.00 0.00 0.00 79 1010.5
20260506003431 17 213 29.0 48.3 0.00 0.00 0.00 79 1010.5
20260506002910 17 188 27.4 46.7 0.00 0.00 0.00 78 1010.5
20260506002131 18 209 29.0 41.8 0.00 0.00 0.00 78 1010.4
20260506001613 18 200 30.6 46.7 0.00 0.00 0.00 77 1010.4
20260506001050 18 189 30.6 49.9 0.00 0.00 0.00 77 1010.4
20260506000551 18 166 30.6 51.5 0.00 0.00 0.00 77 1010.2
20260506000030 18 165 30.6 51.5 0.00 0.00 0.00 77 1010.2
20260505235507 17 187 32.2 51.5 0.00 0.00 0.00 78 1010.2
20260505235008 18 141 32.2 48.3 0.00 0.00 0.00 78 1010.1
20260505234442 17 201 30.6 45.1 0.00 0.00 0.00 78 1010.1
20260505233916 17 195 29.0 43.5 0.00 0.00 0.00 78 1009.9
20260505233349 18 172 27.4 45.1 0.00 0.00 0.00 77 1009.9
20260505232829 18 184 30.6 53.1 0.00 0.00 0.00 76 1009.9
20260505232331 18 198 37.0 56.3 0.00 0.00 0.00 74 1010.0
20260505231805 18 170 38.6 56.3 0.00 0.00 0.00 73 1010.0
20260505231523 19 204 38.6 54.7 0.00 0.00 0.00 73 1010.0
20260505230735 19 205 38.6 56.3 0.00 0.00 0.00 73 1009.7
20260505230230 19 207 37.0 54.7 0.00 0.00 0.00 72 1009.7
20260505225726 19 217 37.0 53.1 0.00 0.00 0.00 73 1009.7
20260505225157 19 208 35.4 57.9 0.00 0.00 0.00 73 1009.6
20260505224630 19 199 33.8 53.1 0.00 0.00 0.00 72 1009.6
20260505224130 19 176 37.0 53.1 0.00 0.00 0.00 72 1009.6
20260505223617 19 199 35.4 53.1 0.00 0.00 0.00 72 1009.6
20260505223118 19 204 35.4 53.1 0.00 0.00 0.00 73 1009.6
20260505222552 19 161 33.8 49.9 0.00 0.00 0.00 73 1009.6
20260505222053 19 199 32.2 49.9 0.00 0.00 0.00 73 1009.6
20260505221528 19 196 30.6 49.9 0.00 0.00 0.00 74 1009.6
20260505221025 18 188 30.6 51.5 0.00 0.00 0.00 75 1009.6
20260505220510 18 183 30.6 51.5 0.00 0.00 0.00 76 1009.1
20260505220011 18 185 32.2 53.1 0.00 0.00 0.00 77 1009.1
20260505215736 18 188 33.8 53.1 0.00 0.00 0.00 76 1009.1
20260505214948 18 191 35.4 53.1 0.00 0.00 0.00 75 1009.1
20260505214447 18 165 33.8 53.1 0.00 0.00 0.00 75 1009.1